Location: �chenoz-la-M�line
(47.6009°N, 6.1354°E)
Time: 07:44:02
(UTC+00:00)

Cosmos 2228 - Visible Passes

Search period start: 12 May 2021 00:00
Search period end: 22 May 2021 00:00
Orbit: 587 x 619 km, 82.5° (Epoch: 11 May)

Date Brightness Start Highest point End Pass type
(mag) Time Alt. Az. Time Alt. Az. Time Alt. Az.
12 May 3.1 02:52:10 10° N 02:56:27 81° E 03:00:45 10° S visible
13 May 5.8 01:28:24 10° NNE 01:30:51 15° ENE 01:33:17 10° E visible
13 May 3.0 03:04:35 10° NNW 03:08:49 62° W 03:13:04 10° S visible
14 May 5.4 01:40:04 10° NNE 01:43:27 22° ENE 01:46:50 10° ESE visible
14 May 3.6 03:17:09 10° NNW 03:21:07 38° W 03:25:07 10° SSW visible
15 May 4.6 01:52:05 10° N 01:56:00 34° ENE 01:59:55 10° SE visible
16 May 3.7 02:04:15 10° N 02:08:29 54° ENE 02:12:42 10° SSE visible
17 May 6.1 00:42:02 10° NE 00:42:39 10° ENE 00:43:15 10° ENE visible
17 May 3.0 02:16:35 10° N 02:20:53 87° ENE 02:25:13 10° S visible
18 May 5.7 00:52:40 10° NNE 00:55:19 16° ENE 00:57:58 10° ESE visible
18 May 3.1 02:29:01 10° NNW 02:33:15 58° W 02:37:29 10° S visible
19 May 5.1 01:04:25 10° NNE 01:07:55 24° ENE 01:11:25 10° SE visible
19 May 3.7 02:41:37 10° NNW 02:45:33 36° W 02:49:29 10° SSW visible
20 May 4.4 01:16:27 10° N 01:20:27 36° ENE 01:24:27 10° SE visible
20 May 4.3 02:54:23 10° NW 02:57:48 23° W 03:01:12 10° SW visible
21 May 3.5 01:28:39 10° N 01:32:55 58° ENE 01:36:26 15° SSE visible
21 May 4.9 03:07:32 10° NW 03:09:58 15° W 03:12:25 10° WSW visible
